Austin Straubel International Airport
KGRB : now visible

Airfield :











YOU CAN JOIN US ON...

 
LOGIN :

Register | Disclaimer

   EN    FR    IT 

 









Legend :    VFR   Marginal VFR   IFR   Intensive IFR   Very Intensive IFR
Visi :
Ceiling :
>= 8 km
>= 3000ft
5 to 8 km
1000 to 3000 ft
1500m to 5 km
500 to 1000 ft
800 to 1500m
200 to 500 ft
< 800m
< 200 ft
Symbols :   Thunderstorms  Fog  Heavy snow  Heavy precipitations  Wind > 20 kt






- Airport Elevation : 695 ft
- IATA code : GRB


KGRB - Austin Straubel International

CURRENT METAR :
  • 191453Z 28009KT 10SM CLR M15/M21 A3058 RMK AO2 SLP370 T11501211 51018

EXPIRED METARs :
  • 191353Z 29010KT 10SM CLR M17/M22 A3056 RMK AO2 SLP366 T11671222
  • 191253Z 28008KT 10SM CLR M18/M23 A3054 RMK AO2 SLP359 T11781228

TAF KGRB
Valid from the 19 at 12:00 until the 20 at 12:00 UTC


191132Z 1912/2012 28007KT P6SM SKC
FM191600 28010G16KT P6SM SKC
FM192300 30006KT P6SM SKC



MET'MAP, your aeronautical weather chart ! - Copyright ORBIFLY December 2007 - Disclaimer

ORBIFLY MET'MAP TEAM :

Programming & Development : Alexandra Zaïnal
Concept & original design : Baudouin d'Aumeries
Assistance for programming : Marc-Olivier Méhu
Technical & hardware support : Manuel Goepfert

Contact : metmap@orbifly.com




SOURCES & CREDITS :

   NOAA       Earth
Advisory